STARLINK-1356, 45564

Orbit data source: Space-Track

STARLINK-1356, 45564 is a payload satellite owned by SpaceX/Seattle (US) in LEO that was launched on Wed, 22 Apr 2020 UTC via an FALCON 9 launch vehicle from the Air Force Eastern Test Range (AFETR). Payload-class satellites include a variety of spacecraft equipped with specific instruments for various scientific and technological missions. These include communications satellites like Starlink; space stations such as the ISS; scientific satellites like the Hubble; Earth observation satellites from companies like Planet Labs, Umbra, and HawkEye 360; GPS; miniature CubeSats for education and research; and military/defense satellites.

Loading next visibility...
Identifier
45564, 2020-025AK
Orbit
LEO
Country
Flag of USUS
Related business
Manufacturer
SpaceX/Seattle
Mission
Operational Commercial Communications
Bus & Motor
STARLINK, Unknown motor
Mass
260 kg wet, ~248 kg dry
Launch date (UTC)
2020-04-22 (6 years ago)
Launch vehicle
FALCON 9
Launch site
Air Force Eastern Test Range (AFETR)
Object type
Payload
Rocket body
Debris
Shape & HBR
Box + 1 Pan, 10.1 m
Radar Cross Section
13.562 m², Large (>1 m²)

Expand to show TLE details & history
Last TLE update: 15 hours ago

TLE from 15 hours ago
0 STARLINK-1356
1 45564U 20025AK  25308.27795341  .00002337  00000-0  17570-3 0  9997
2 45564  53.0556 289.6119 0001469  90.3211 269.7946 15.06413847306463
Epoch: 2025-11-04T06:40Z
TLE epoch observation values (Epoch: 2025-11-04T06:40:15.174Z)
Latitude
-0.00006°
Longitude
145.78136°
Altitude
548.052 km
Speed
7.589 km/s
True Right ascension
19h 18m 26s
True Declination
0° 00' 00"
Sunlit
Object was in daylight at epoch
Visualization orbit readout
Latitude
Unknown
Longitude
Unknown
Altitude
Unknown
Speed
Unknown
Apparent Right ascension
Unknown
Apparent Declination
Unknown
Sunlit
N/A
Visualization observer readout
Local Sidereal Time
17:47:54
Azimuth
Unknown
Elevation
Unknown
Doppler factor
Unknown
Orbital elements
Apogee altitude
548.457 km
Perigee altitude
546.422 km
Semi-major axis
6,925.577 km
Eccentricity
0.00015
Inclination
53.0556°
RAAN
289.6119°
Arg. of periapsis
90.3211°
True anomaly
269.77777°
Mean anomaly
269.7946°
Eccentric anomaly
269.78618°
Mean motion
3.76582 °/min
Orbital period
95.6 mins
BSTAR
0.0001757
Loading maneuver chart data...
Computing Atmospheric mass density...
Loading historical data...
Loading historical data...
Loading historical data...
Loading historical data...
Loading historical data...
Loading historical data...
Loading historical data...

Documentation

Showing up to 5 results
|